London-Corbin, KY

7:03 AM EDT on June 23, 2017 (GMT -0400)
London-Corbin / McKee

Weather History for KLOZ - August, 2014

Change the Weather History Date:

Sunday, August 31, 2014

  Actual Average Record
Temperature  
Mean Temperature 75 °F 73 °F  
Max Temperature 80 °F 84 °F 96 °F (1957)
Min Temperature 70 °F 63 °F 46 °F (1976)
Degree Days  
Heating Degree Days 0 0  
Month to date heating degree days 0 0  
Since 1 June heating degree days 0 10  
Since 1 July heating degree days 0 1  
Cooling Degree Days 10 8  
Month to date cooling degree days 331 317  
Year to date cooling degree days 1024  
Since 1 June cooling degree days 910  
Growing Degree Days 25 (Base 50)    
Moisture  
Dew Point 69 °F    
Average Humidity 80    
Maximum Humidity 90    
Minimum Humidity 69    
Precipitation  
Precipitation 0.51 in 0.11 in 1.29 in (1986)
Month to date precipitation 6.10 3.71  
Sea Level Pressure  
Sea Level Pressure 30.10 in    
Wind  
Wind Speed 6 mph (South)    
Max Wind Speed 17 mph    
Max Gust Speed 23 mph    
Visibility 8 miles    
Events Rain    
T = Trace of Precipitation, MM = Missing Value Source: NWS Daily Summary

Daily Weather History Graph

Daily Weather History Graph

Search for Another Location

Airport or City:

Trip Planner

Search our weather history database for the weather conditions in past years. The results will help you decide how hot, cold, wet, or windy it might be!

Date:

Astronomy

Aug. 31, 2014 Rise Set
Actual Time 7:06 AM EDT 8:06 PM EDT
Civil Twilight 6:39 AM EDT 8:32 PM EDT
Nautical Twilight 6:07 AM EDT 9:04 PM EDT
Astronomical Twilight 5:35 AM EDT 9:37 PM EDT
Moon 12:43 PM EDT (8/31) 11:29 PM EDT (8/31)
Length of Visible Light 13h 53m
Length of Day
13h 00m
Waxing Crescent, 32% of the Moon is Illuminated
Aug 31
Waxing Crescent
Sep 2
First Quarter
Sep 8
Full
Sep 15
Last Quarter
Sep 24
New

Hourly Weather History & Observations

Time (EDT) Temp. Heat Index Dew Point Humidity Pressure Visibility Wind Dir Wind Speed Gust Speed Precip Events Conditions
12:25 AM 72.0 °F - 69.1 °F 91% 30.16 in 1.5 mi SSW 6.9 mph - 0.25 in Rain Heavy Rain
12:41 AM 72.0 °F - 68.0 °F 87% 30.15 in 2.5 mi SSW 10.4 mph 17.3 mph 0.47 in Rain Heavy Rain
12:51 AM 71.6 °F - 68.0 °F 88% 30.15 in 3.0 mi SSW 10.4 mph - 0.52 in Rain Heavy Rain
12:53 AM 72.0 °F - 68.0 °F 87% 30.11 in 4.0 mi South 8.1 mph - 0.53 in Rain Heavy Rain
1:53 AM 71.1 °F - 68.0 °F 90% 30.06 in 10.0 mi ESE 5.8 mph - 0.09 in Rain Light Rain
2:53 AM 71.1 °F - 68.0 °F 90% 30.07 in 10.0 mi South 6.9 mph - 0.00 in   Clear
3:53 AM 71.1 °F - 68.0 °F 90% 30.06 in 10.0 mi South 4.6 mph - N/A   Clear
4:53 AM 71.1 °F - 68.0 °F 90% 30.08 in 10.0 mi South 4.6 mph - N/A   Clear
5:53 AM 70.0 °F - 66.9 °F 90% 30.08 in 10.0 mi South 5.8 mph - N/A   Clear
6:53 AM 70.0 °F - 66.9 °F 90% 30.09 in 10.0 mi Calm Calm - N/A   Clear
7:53 AM 70.0 °F - 66.9 °F 90% 30.10 in 10.0 mi SE 3.5 mph - N/A   Clear
8:53 AM 71.1 °F - 66.9 °F 87% 30.12 in 3.0 mi West 4.6 mph - 0.04 in Rain Rain
9:51 AM 71.6 °F - 68.0 °F 88% 30.15 in 2.5 mi Calm Calm - 0.08 in Rain Light Rain
9:53 AM 71.1 °F - 68.0 °F 90% 30.12 in 4.0 mi Calm Calm - 0.08 in Rain Light Rain
10:18 AM 72.0 °F - 68.0 °F 87% 30.15 in 1.5 mi WSW 3.5 mph - 0.03 in Rain Light Rain
10:38 AM 72.0 °F - 68.0 °F 87% 30.15 in 3.0 mi Calm Calm - 0.11 in Rain Light Rain
10:53 AM 71.1 °F - 68.0 °F 90% 30.13 in 1.2 mi SSE 4.6 mph - 0.24 in Rain Heavy Rain
11:00 AM 71.1 °F - 68.0 °F 90% 30.16 in 2.0 mi South 3.5 mph - 0.01 in Rain Light Rain
11:08 AM 71.1 °F - 68.0 °F 90% 30.16 in 10.0 mi South 4.6 mph - 0.01 in   Overcast
11:21 AM 72.0 °F - 69.1 °F 91% 30.16 in 10.0 mi Variable 3.5 mph - 0.01 in   Overcast
11:53 AM 73.9 °F - 69.1 °F 85% 30.12 in 10.0 mi South 5.8 mph - 0.01 in   Mostly Cloudy
12:48 PM 78.8 °F - 69.8 °F 74% 30.13 in 10.0 mi South 10.4 mph - N/A   Mostly Cloudy
12:53 PM 78.1 °F - 70.0 °F 76% 30.09 in 10.0 mi South 8.1 mph - N/A   Mostly Cloudy
1:00 PM 78.1 °F - 70.0 °F 76% 30.13 in 10.0 mi SSW 9.2 mph - N/A   Mostly Cloudy
1:22 PM 79.0 °F - 69.1 °F 72% 30.13 in 10.0 mi SSW 10.4 mph - N/A   Mostly Cloudy
1:38 PM 79.0 °F - 69.1 °F 72% 30.12 in 10.0 mi SSW 10.4 mph - N/A   Mostly Cloudy
1:53 PM 79.0 °F - 70.0 °F 74% 30.09 in 10.0 mi SSW 9.2 mph - N/A   Mostly Cloudy
2:53 PM 80.1 °F 82.9 °F 69.1 °F 69% 30.07 in 10.0 mi SSW 11.5 mph - 0.00 in   Partly Cloudy
3:53 PM 79.0 °F - 70.0 °F 74% 30.04 in 10.0 mi South 8.1 mph - N/A   Mostly Cloudy
4:45 PM 77.0 °F - 70.0 °F 79% 30.08 in 1.8 mi SSW 5.8 mph 17.3 mph 0.05 in Rain Heavy Rain
4:53 PM 77.0 °F - 71.1 °F 82% 30.04 in 4.0 mi South 6.9 mph - 0.05 in Rain Light Rain
5:53 PM 78.1 °F - 71.1 °F 79% 30.05 in 10.0 mi South 11.5 mph - 0.02 in   Scattered Clouds
6:53 PM 77.0 °F - 69.1 °F 76% 30.04 in 10.0 mi SSW 9.2 mph - N/A   Mostly Cloudy
7:53 PM 75.9 °F - 69.1 °F 79% 30.04 in 10.0 mi SSW 6.9 mph - N/A   Mostly Cloudy
8:53 PM 75.0 °F - 70.0 °F 84% 30.05 in 10.0 mi South 5.8 mph - N/A   Overcast
9:53 PM 75.0 °F - 70.0 °F 84% 30.05 in 10.0 mi South 4.6 mph - 0.00 in   Overcast
10:53 PM 75.0 °F - 69.1 °F 82% 30.06 in 10.0 mi SSW 6.9 mph - N/A   Overcast
11:53 PM 73.9 °F - 69.1 °F 85% 30.06 in 10.0 mi SSW 4.6 mph - N/A   Overcast